Volver al catálogo

STARLINK-38079

ActivoComunicacionesSSO
NORAD 100165·PAYLOAD·🇺🇸 United States

Lanzado Jul 25, 2026 desde Vandenberg Space Force Base

Loading…

Próximos Pases (próximas 24 horas)

TLE

ActualizadoSource: Space-Track

Época: Sep 14, 2026, 14:45 UTC

1 A0165U 26171T   26257.61494750  .00012439  00000-0  34591-3 0  9991
2 A0165  97.2837 290.1328 0001022  76.9914 283.1445 15.36984686  7994

Sigue STARLINK-38079 en tiempo real con AllMySat

Download on the App Store